Estación de Longaví Norte

Ultimos registro cada 15 minutos 49
Estación Fecha / Hora Temperatura Humedad Lluvia Velocidad Dirección Radiación Presion
49 Longaví Norte 05-09-2026 12:00 9,2 86,9 0 0,7 184 514,4 1000,9
48 Longaví Norte 05-09-2026 11:45 9,2 90,7 0 0,7 270 279,4 1001,2
47 Longaví Norte 05-09-2026 11:30 7,1 98 0 0,7 202 510,6 1001,3
46 Longaví Norte 05-09-2026 11:15 5,7 99,9 0 0,7 218 288,1 1001,5
45 Longaví Norte 05-09-2026 11:00 4,8 100 0 0,7 205 225,6 1001,6
44 Longaví Norte 05-09-2026 10:45 4,5 100 0 1 187 210,6 1001,6
43 Longaví Norte 05-09-2026 10:30 4,5 100 0 0,7 215 180,6 1001,7
42 Longaví Norte 05-09-2026 10:15 4,3 100 0 0,7 208 156,9 1001,9
41 Longaví Norte 05-09-2026 10:00 3,9 100 0 0,7 208 145,6 1001,9
40 Longaví Norte 05-09-2026 09:45 3,7 100 0 0,7 230 139,4 1002
39 Longaví Norte 05-09-2026 09:30 3,8 100 0 0,7 227 109,4 1002,1
38 Longaví Norte 05-09-2026 09:15 3,6 100 0 0,7 240 101,9 1002,1
37 Longaví Norte 05-09-2026 09:00 3,4 100 0 0,3 225 89,4 1002,1
36 Longaví Norte 05-09-2026 08:45 3,4 100 0 0,3 153 81,9 1002,3
35 Longaví Norte 05-09-2026 08:30 3,4 100 0 0,3 110 63,1 1002,3
34 Longaví Norte 05-09-2026 08:15 3,2 100 0 0,3 146 44,4 1002,3
33 Longaví Norte 05-09-2026 08:00 3 100 0 0 129 33,1 1002,3
32 Longaví Norte 05-09-2026 07:45 3 100 0 0 147 21,9 1002,3
31 Longaví Norte 05-09-2026 07:30 2,8 100 0 0 164 13,1 1002,2
30 Longaví Norte 05-09-2026 07:15 2,8 100 0 0,3 171 3,1 1002,2
29 Longaví Norte 05-09-2026 07:00 2,6 100 0 0,7 177 0,6 1002,2
28 Longaví Norte 05-09-2026 06:45 2,7 99,9 0 0,7 181 0,6 1002,3
27 Longaví Norte 05-09-2026 06:30 2,7 100 0 0,7 206 0,6 1002,2
26 Longaví Norte 05-09-2026 06:15 2,1 99,9 0 0 211 0,6 1002,2
25 Longaví Norte 05-09-2026 06:00 1,3 99,9 0 0 209 0,6 1002,1
24 Longaví Norte 05-09-2026 05:45 0,8 100 0 0 209 0,6 1002,2
23 Longaví Norte 05-09-2026 05:30 0,2 100 0 0 209 0,6 1002,2
22 Longaví Norte 05-09-2026 05:15 -0,9 99,9 0 0 209 0,6 1002,2
21 Longaví Norte 05-09-2026 05:00 -1,3 99,7 0 0 209 0,6 1002,2
20 Longaví Norte 05-09-2026 04:45 -1,1 99,5 0 0 209 0,6 1002,2
19 Longaví Norte 05-09-2026 04:30 -1 99,5 0 0 209 0,6 1002,3
18 Longaví Norte 05-09-2026 04:15 -1 99,3 0 0 209 0,6 1002,3
17 Longaví Norte 05-09-2026 04:00 -0,9 99,3 0 0 209 0,6 1002,4
16 Longaví Norte 05-09-2026 03:45 -0,9 98,8 0 0 209 0,6 1002,6
15 Longaví Norte 05-09-2026 03:30 -0,7 99 0 0 209 0,6 1002,7
14 Longaví Norte 05-09-2026 03:15 -0,5 98,9 0 0 209 0,6 1003
13 Longaví Norte 05-09-2026 03:00 -0,3 99 0 0 209 0,6 1003,3
12 Longaví Norte 05-09-2026 02:45 0 98,4 0 0 209 0,6 1003,5
11 Longaví Norte 05-09-2026 02:30 0,3 98,5 0 0 209 0,6 1003,6
10 Longaví Norte 05-09-2026 02:15 0,4 98,3 0 0 209 0,6 1003,8
9 Longaví Norte 05-09-2026 02:00 0,5 97,9 0 0 209 0,6 1004
8 Longaví Norte 05-09-2026 01:45 0,7 97,8 0 0 209 0,6 1004,1
7 Longaví Norte 05-09-2026 01:30 0,4 97,5 0 0 209 0,6 1004,2
6 Longaví Norte 05-09-2026 01:15 0,7 96,9 0 0 209 0,6 1004,4
5 Longaví Norte 05-09-2026 01:00 1,1 96,6 0 0 209 0,6 1004,5
4 Longaví Norte 05-09-2026 00:45 1,6 95,8 0 0 209 0,6 1004,5
3 Longaví Norte 05-09-2026 00:30 2,5 95,9 0 0 209 0,6 1004,5
2 Longaví Norte 05-09-2026 00:15 2,8 94,6 0 0 209 0,6 1004,7
1 Longaví Norte 05-09-2026 00:00 3,1 93,5 0 0 209 0,6 1004,9